| time (UTC) | temp F | wind direction | speed MPH | gust MPH | rain 1hr in | rain 24hr in | rain mn in | humidity % | barometer mb |
| 20260510220646 | 83 | 49 | 2.0 | 9.0 | 0.00 | 0.00 | 0.00 | 66 | 1014.6 |
| 20260510220147 | 83 | 55 | 3.0 | 5.0 | 0.00 | 0.00 | 0.00 | 66 | 1014.6 |
| 20260510215646 | 83 | 45 | 3.0 | 5.0 | 0.00 | 0.00 | 0.00 | 65 | 1014.6 |
| 20260510215147 | 83 | 139 | 3.0 | 8.0 | 0.00 | 0.00 | 0.00 | 63 | 1014.6 |
| 20260510214646 | 83 | 160 | 4.0 | 7.0 | 0.00 | 0.00 | 0.00 | 64 | 1014.6 |
| 20260510214147 | 83 | 83 | 3.0 | 7.0 | 0.00 | 0.00 | 0.00 | 64 | 1014.6 |
| 20260510213648 | 83 | 149 | 6.0 | 6.0 | 0.00 | 0.00 | 0.00 | 64 | 1014.6 |
| 20260510213147 | 83 | 137 | 3.0 | 8.0 | 0.00 | 0.00 | 0.00 | 65 | 1014.6 |
| 20260510212646 | 83 | 147 | 8.0 | 9.0 | 0.00 | 0.00 | 0.00 | 63 | 1014.2 |
| 20260510212147 | 83 | 124 | 6.0 | 7.0 | 0.00 | 0.00 | 0.00 | 64 | 1014.2 |
| 20260510211646 | 83 | 155 | 5.0 | 11.0 | 0.00 | 0.00 | 0.00 | 64 | 1014.6 |
| 20260510211147 | 83 | 62 | 2.0 | 5.0 | 0.00 | 0.00 | 0.00 | 64 | 1014.2 |
| 20260510210647 | 83 | 139 | 6.0 | 9.0 | 0.00 | 0.00 | 0.00 | 66 | 1014.9 |
| 20260510210146 | 83 | 141 | 3.0 | 9.0 | 0.00 | 0.00 | 0.00 | 66 | 1014.9 |
| 20260510205646 | 83 | 155 | 6.0 | 10.0 | 0.00 | 0.00 | 0.00 | 64 | 1014.6 |
| 20260510205147 | 83 | 25 | 2.0 | 6.0 | 0.00 | 0.00 | 0.00 | 67 | 1014.6 |
| 20260510204646 | 83 | 148 | 8.0 | 10.0 | 0.00 | 0.00 | 0.00 | 67 | 1014.6 |
| 20260510204148 | 82 | 126 | 5.0 | 9.0 | 0.00 | 0.00 | 0.00 | 72 | 1014.6 |
| 20260510203647 | 82 | 56 | 5.0 | 9.0 | 0.00 | 0.00 | 0.00 | 69 | 1014.9 |
| 20260510203147 | 82 | 109 | 2.0 | 7.0 | 0.00 | 0.00 | 0.00 | 70 | 1014.6 |
| 20260510202646 | 82 | 124 | 3.0 | 13.0 | 0.00 | 0.00 | 0.00 | 68 | 1014.6 |
| 20260510202147 | 82 | 81 | 8.0 | 10.0 | 0.00 | 0.00 | 0.00 | 69 | 1014.6 |
| 20260510201647 | 83 | 101 | 3.0 | 8.0 | 0.00 | 0.00 | 0.00 | 68 | 1014.6 |
| 20260510201147 | 83 | 74 | 6.0 | 11.0 | 0.00 | 0.00 | 0.00 | 68 | 1014.6 |
| 20260510200646 | 83 | 28 | 3.0 | 7.0 | 0.00 | 0.00 | 0.00 | 68 | 1014.6 |
| 20260510200147 | 82 | 149 | 7.0 | 10.0 | 0.00 | 0.00 | 0.00 | 68 | 1014.6 |
| 20260510195646 | 82 | 61 | 5.0 | 11.0 | 0.00 | 0.00 | 0.00 | 69 | 1014.6 |
| 20260510195146 | 82 | 56 | 2.0 | 7.0 | 0.00 | 0.00 | 0.00 | 70 | 1014.6 |
| 20260510194649 | 82 | 152 | 8.0 | 9.0 | 0.00 | 0.00 | 0.00 | 70 | 1014.6 |
| 20260510194147 | 82 | 163 | 9.0 | 13.0 | 0.00 | 0.00 | 0.00 | 70 | 1014.6 |
| 20260510193647 | 82 | 64 | 2.0 | 12.0 | 0.00 | 0.00 | 0.00 | 72 | 1014.9 |
| 20260510193146 | 82 | 138 | 8.0 | 11.0 | 0.00 | 0.00 | 0.00 | 71 | 1014.9 |
| 20260510192646 | 82 | 102 | 5.0 | 9.0 | 0.00 | 0.00 | 0.00 | 72 | 1014.9 |
| 20260510192146 | 82 | 95 | 3.0 | 6.0 | 0.00 | 0.00 | 0.00 | 74 | 1014.9 |
| 20260510191146 | 82 | 114 | 3.0 | 7.0 | 0.00 | 0.00 | 0.00 | 74 | 1014.9 |
| 20260510190647 | 81 | 112 | 2.0 | 11.0 | 0.00 | 0.00 | 0.00 | 75 | 1014.9 |
| 20260510190146 | 81 | 120 | 2.0 | 9.0 | 0.00 | 0.00 | 0.00 | 75 | 1014.6 |
| 20260510185652 | 83 | 135 | 3.0 | 10.0 | 0.00 | 0.00 | 0.00 | 72 | 1014.6 |
| 20260510185147 | 82 | 150 | 6.0 | 13.0 | 0.00 | 0.00 | 0.00 | 74 | 1014.6 |
| 20260510184647 | 83 | 154 | 7.0 | 12.0 | 0.00 | 0.00 | 0.00 | 71 | 1014.6 |
| 20260510184147 | 82 | 153 | 7.0 | 12.0 | 0.00 | 0.00 | 0.00 | 74 | 1014.9 |
| 20260510183646 | 83 | 148 | 5.0 | 9.0 | 0.00 | 0.00 | 0.00 | 70 | 1014.6 |
| 20260510183147 | 83 | 101 | 5.0 | 8.0 | 0.00 | 0.00 | 0.00 | 68 | 1014.9 |
| 20260510182646 | 83 | 6 | 1.0 | 11.0 | 0.00 | 0.00 | 0.00 | 69 | 1015.2 |
| 20260510182147 | 83 | 138 | 10.0 | 11.0 | 0.00 | 0.00 | 0.00 | 69 | 1015.2 |
| 20260510181646 | 83 | 344 | 3.0 | 10.0 | 0.00 | 0.00 | 0.00 | 69 | 1015.2 |
| 20260510181146 | 84 | 55 | 4.0 | 8.0 | 0.00 | 0.00 | 0.00 | 68 | 1015.2 |
| 20260510180648 | 83 | 57 | 5.0 | 9.0 | 0.00 | 0.00 | 0.00 | 68 | 1015.2 |
| 20260510180146 | 83 | 49 | 6.0 | 7.0 | 0.00 | 0.00 | 0.00 | 71 | 1015.6 |
| 20260510175646 | 82 | 73 | 5.0 | 9.0 | 0.00 | 0.00 | 0.00 | 71 | 1015.6 |
| 20260510175147 | 82 | 163 | 4.0 | 10.0 | 0.00 | 0.00 | 0.00 | 71 | 1015.6 |
| 20260510174647 | 82 | 54 | 6.0 | 8.0 | 0.00 | 0.00 | 0.00 | 72 | 1015.9 |
| 20260510174146 | 82 | 159 | 4.0 | 7.0 | 0.00 | 0.00 | 0.00 | 71 | 1015.6 |
| 20260510173646 | 83 | 80 | 5.0 | 7.0 | 0.00 | 0.00 | 0.00 | 69 | 1015.6 |
| 20260510173147 | 83 | 99 | 2.0 | 10.0 | 0.00 | 0.00 | 0.00 | 72 | 1015.6 |
| 20260510172647 | 82 | 158 | 2.0 | 8.0 | 0.00 | 0.00 | 0.00 | 72 | 1015.6 |
| 20260510172146 | 82 | 146 | 9.0 | 10.0 | 0.00 | 0.00 | 0.00 | 72 | 1015.9 |
| 20260510171650 | 81 | 168 | 3.0 | 5.0 | 0.00 | 0.00 | 0.00 | 72 | 1015.9 |
| 20260510171146 | 81 | 37 | 4.0 | 9.0 | 0.00 | 0.00 | 0.00 | 74 | 1015.9 |
| 20260510170646 | 81 | 61 | 7.0 | 9.0 | 0.00 | 0.00 | 0.00 | 73 | 1015.9 |
| 20260510170146 | 82 | 26 | 5.0 | 9.0 | 0.00 | 0.00 | 0.00 | 72 | 1015.9 |
| 20260510165647 | 81 | 148 | 5.0 | 7.0 | 0.00 | 0.00 | 0.00 | 75 | 1015.9 |
| 20260510165146 | 80 | 71 | 4.0 | 8.0 | 0.00 | 0.00 | 0.00 | 75 | 1015.9 |
| 20260510164647 | 81 | 99 | 4.0 | 7.0 | 0.00 | 0.00 | 0.00 | 74 | 1015.9 |
| 20260510164146 | 80 | 327 | 1.0 | 6.0 | 0.00 | 0.00 | 0.00 | 76 | 1015.9 |
| 20260510163650 | 80 | 93 | 6.0 | 7.0 | 0.00 | 0.00 | 0.00 | 77 | 1015.9 |
| 20260510163146 | 79 | 17 | 3.0 | 7.0 | 0.00 | 0.00 | 0.00 | 77 | 1015.9 |
| 20260510162647 | 79 | 60 | 4.0 | 8.0 | 0.00 | 0.00 | 0.00 | 78 | 1015.9 |
| 20260510162147 | 79 | 63 | 3.0 | 7.0 | 0.00 | 0.00 | 0.00 | 78 | 1016.3 |
| 20260510161646 | 80 | 37 | 5.0 | 9.0 | 0.00 | 0.00 | 0.00 | 77 | 1015.9 |
| 20260510161147 | 80 | 72 | 5.0 | 6.0 | 0.00 | 0.00 | 0.00 | 78 | 1016.3 |
| 20260510160647 | 78 | 150 | 3.0 | 7.0 | 0.00 | 0.00 | 0.00 | 81 | 1015.9 |
| 20260510160146 | 79 | 76 | 7.0 | 9.0 | 0.00 | 0.00 | 0.00 | 78 | 1015.9 |
| 20260510155649 | 80 | 78 | 8.0 | 11.0 | 0.00 | 0.00 | 0.00 | 77 | 1015.9 |
| 20260510155147 | 79 | 73 | 4.0 | 6.0 | 0.00 | 0.00 | 0.00 | 79 | 1015.9 |
| 20260510154646 | 78 | 80 | 5.0 | 8.0 | 0.00 | 0.00 | 0.00 | 79 | 1015.9 |
| 20260510154147 | 78 | 97 | 4.0 | 9.0 | 0.00 | 0.00 | 0.00 | 79 | 1015.9 |
| 20260510153647 | 78 | 52 | 5.0 | 9.0 | 0.00 | 0.00 | 0.00 | 80 | 1015.9 |
| 20260510153146 | 77 | 85 | 4.0 | 8.0 | 0.00 | 0.00 | 0.00 | 81 | 1015.9 |
| 20260510152647 | 77 | 71 | 5.0 | 11.0 | 0.00 | 0.00 | 0.00 | 82 | 1015.9 |
| 20260510152147 | 77 | 58 | 4.0 | 9.0 | 0.00 | 0.00 | 0.00 | 83 | 1015.9 |
| 20260510151647 | 77 | 63 | 4.0 | 9.0 | 0.00 | 0.00 | 0.00 | 84 | 1015.9 |
| 20260510151150 | 77 | 24 | 5.0 | 9.0 | 0.00 | 0.00 | 0.00 | 83 | 1015.9 |
| 20260510150646 | 77 | 40 | 1.0 | 6.0 | 0.00 | 0.00 | 0.00 | 84 | 1015.9 |
| 20260510150148 | 77 | 49 | 4.0 | 7.0 | 0.00 | 0.00 | 0.00 | 85 | 1015.9 |
| 20260510145646 | 76 | 44 | 2.0 | 8.0 | 0.00 | 0.00 | 0.00 | 86 | 1016.3 |
| 20260510145146 | 75 | 5 | 3.0 | 6.0 | 0.00 | 0.00 | 0.00 | 87 | 1016.3 |
| 20260510144647 | 75 | 40 | 3.0 | 10.0 | 0.00 | 0.00 | 0.00 | 87 | 1016.3 |
| 20260510144146 | 75 | 348 | 2.0 | 8.0 | 0.00 | 0.00 | 0.00 | 88 | 1016.3 |
| 20260510143646 | 75 | 35 | 5.0 | 8.0 | 0.00 | 0.00 | 0.00 | 88 | 1016.3 |
| 20260510143147 | 75 | 68 | 8.0 | 11.0 | 0.00 | 0.00 | 0.00 | 88 | 1015.9 |
| 20260510142646 | 75 | 47 | 8.0 | 9.0 | 0.00 | 0.00 | 0.00 | 89 | 1015.9 |
| 20260510142146 | 75 | 45 | 2.0 | 8.0 | 0.00 | 0.00 | 0.00 | 90 | 1015.9 |
| 20260510141650 | 74 | 71 | 8.0 | 10.0 | 0.00 | 0.00 | 0.00 | 91 | 1015.9 |
| 20260510141147 | 74 | 51 | 4.0 | 9.0 | 0.00 | 0.00 | 0.00 | 91 | 1015.9 |
| 20260510140648 | 73 | 57 | 9.0 | 11.0 | 0.00 | 0.00 | 0.00 | 92 | 1015.9 |
| 20260510140147 | 73 | 90 | 4.0 | 11.0 | 0.00 | 0.00 | 0.00 | 93 | 1015.9 |
| 20260510135647 | 72 | 42 | 6.0 | 12.0 | 0.00 | 0.00 | 0.00 | 94 | 1015.9 |
| 20260510135147 | 72 | 63 | 4.0 | 8.0 | 0.00 | 0.00 | 0.00 | 95 | 1015.9 |
| 20260510134646 | 72 | 54 | 6.0 | 7.0 | 0.00 | 0.00 | 0.00 | 96 | 1015.9 |
| 20260510134146 | 71 | 21 | 5.0 | 8.0 | 0.00 | 0.00 | 0.00 | 96 | 1015.9 |
| 20260510133647 | 71 | 68 | 5.0 | 6.0 | 0.00 | 0.00 | 0.00 | 97 | 1015.9 |
| 20260510133147 | 71 | 38 | 2.0 | 6.0 | 0.00 | 0.00 | 0.00 | 97 | 1015.9 |
| 20260510132647 | 71 | 46 | 6.0 | 10.0 | 0.00 | 0.00 | 0.00 | 98 | 1015.9 |
| 20260510132146 | 71 | 29 | 7.0 | 8.0 | 0.00 | 0.00 | 0.00 | 98 | 1015.9 |
| 20260510131646 | 70 | 36 | 5.0 | 8.0 | 0.00 | 0.00 | 0.00 | 99 | 1015.9 |
| 20260510131147 | 70 | 24 | 4.0 | 10.0 | 0.00 | 0.00 | 0.00 | 99 | 1015.6 |
| 20260510130647 | 70 | 336 | 2.0 | 6.0 | 0.00 | 0.00 | 0.00 | 99 | 1015.6 |
| 20260510130146 | 70 | 10 | 2.0 | 7.0 | 0.00 | 0.00 | 0.00 | 99 | 1015.6 |
| 20260510125646 | 70 | 4 | 5.0 | 6.0 | 0.00 | 0.00 | 0.00 | 99 | 1015.6 |
| 20260510125146 | 70 | 57 | 3.0 | 7.0 | 0.00 | 0.00 | 0.00 | 99 | 1015.2 |
| 20260510124650 | 70 | 34 | 3.0 | 5.0 | 0.00 | 0.00 | 0.00 | 99 | 1015.2 |
| 20260510124146 | 69 | 33 | 3.0 | 6.0 | 0.00 | 0.00 | 0.00 | 99 | 1015.2 |
| 20260510123646 | 69 | 2 | 1.0 | 5.0 | 0.00 | 0.00 | 0.00 | 99 | 1014.9 |
| 20260510123146 | 69 | 27 | 2.0 | 6.0 | 0.00 | 0.00 | 0.00 | 99 | 1014.9 |
| 20260510122646 | 69 | 38 | 2.0 | 5.0 | 0.00 | 0.00 | 0.00 | 99 | 1014.9 |
| 20260510122148 | 69 | 59 | 7.0 | 7.0 | 0.00 | 0.00 | 0.00 | 99 | 1014.6 |
| 20260510121647 | 69 | 53 | 2.0 | 5.0 | 0.00 | 0.00 | 0.00 | 99 | 1014.6 |
| 20260510121147 | 68 | 66 | 4.0 | 6.0 | 0.00 | 0.00 | 0.00 | 99 | 1014.6 |
| 20260510120646 | 68 | 43 | 4.0 | 6.0 | 0.00 | 0.00 | 0.00 | 99 | 1014.6 |
| 20260510120147 | 68 | 48 | 3.0 | 5.0 | 0.00 | 0.00 | 0.00 | 99 | 1014.6 |
| 20260510115646 | 68 | 32 | 3.0 | 3.0 | 0.00 | 0.00 | 0.00 | 99 | 1014.6 |
| 20260510115147 | 68 | 7 | 2.0 | 5.0 | 0.00 | 0.00 | 0.00 | 99 | 1014.6 |
| 20260510114649 | 68 | 20 | 2.0 | 3.0 | 0.00 | 0.00 | 0.00 | 99 | 1014.2 |
| 20260510114147 | 68 | 315 | 2.0 | 4.0 | 0.00 | 0.00 | 0.00 | 99 | 1014.2 |
| 20260510113647 | 68 | 93 | 1.0 | 4.0 | 0.00 | 0.00 | 0.00 | 99 | 1014.2 |
| 20260510113147 | 68 | 91 | 1.0 | 7.0 | 0.00 | 0.00 | 0.00 | 99 | 1014.2 |
| 20260510112646 | 68 | 86 | 5.0 | 5.0 | 0.00 | 0.00 | 0.00 | 99 | 1014.2 |
| 20260510112147 | 68 | 46 | 2.0 | 4.0 | 0.00 | 0.00 | 0.00 | 99 | 1013.9 |
| 20260510111647 | 68 | 63 | 3.0 | 6.0 | 0.00 | 0.00 | 0.00 | 99 | 1013.9 |
| 20260510111147 | 68 | 56 | 4.0 | 6.0 | 0.00 | 0.00 | 0.00 | 99 | 1013.9 |
| 20260510110647 | 68 | 75 | 6.0 | 9.0 | 0.00 | 0.00 | 0.00 | 99 | 1013.5 |
| 20260510110147 | 68 | 76 | 3.0 | 5.0 | 0.00 | 0.00 | 0.00 | 99 | 1013.5 |
| 20260510105647 | 68 | 35 | 2.0 | 5.0 | 0.00 | 0.00 | 0.00 | 99 | 1013.5 |
| 20260510105147 | 68 | 21 | 2.0 | 3.0 | 0.00 | 0.00 | 0.00 | 99 | 1013.5 |
| 20260510104647 | 68 | 357 | 2.0 | 3.0 | 0.00 | 0.00 | 0.00 | 99 | 1013.5 |
| 20260510104147 | 68 | 51 | 3.0 | 5.0 | 0.00 | 0.00 | 0.00 | 99 | 1013.2 |
| 20260510103646 | 68 | 20 | 2.0 | 4.0 | 0.00 | 0.00 | 0.00 | 99 | 1013.2 |
| 20260510103147 | 68 | 61 | 2.0 | 3.0 | 0.00 | 0.00 | 0.00 | 99 | 1012.9 |
| 20260510102646 | 68 | 45 | 3.0 | 5.0 | 0.00 | 0.00 | 0.00 | 99 | 1013.2 |
| 20260510102151 | 68 | 331 | 1.0 | 4.0 | 0.00 | 0.00 | 0.00 | 99 | 1012.9 |
| 20260510101647 | 68 | 20 | 1.0 | 2.0 | 0.00 | 0.00 | 0.00 | 99 | 1012.9 |
| 20260510100700 | 68 | 41 | 2.0 | 5.0 | 0.00 | 0.00 | 0.00 | 99 | 1012.9 |
| 20260510100147 | 68 | 54 | 3.0 | 7.0 | 0.00 | 0.00 | 0.00 | 99 | 1012.9 |
| 20260510095646 | 68 | 60 | 0.0 | 6.0 | 0.00 | 0.00 | 0.00 | 99 | 1012.9 |
| 20260510095147 | 68 | 285 | 2.0 | 4.0 | 0.00 | 0.00 | 0.00 | 99 | 1012.5 |
| 20260510094646 | 68 | 75 | 3.0 | 4.0 | 0.00 | 0.00 | 0.00 | 99 | 1012.9 |
| 20260510094147 | 68 | 332 | 2.0 | 3.0 | 0.00 | 0.00 | 0.00 | 99 | 1012.9 |
| 20260510093647 | 68 | 337 | 1.0 | 4.0 | 0.00 | 0.00 | 0.00 | 99 | 1012.5 |
| 20260510093147 | 68 | 38 | 1.0 | 3.0 | 0.00 | 0.00 | 0.00 | 99 | 1012.9 |
| 20260510092647 | 68 | 67 | 3.0 | 5.0 | 0.00 | 0.00 | 0.00 | 99 | 1012.5 |
| 20260510092146 | 68 | 26 | 5.0 | 5.0 | 0.00 | 0.00 | 0.00 | 99 | 1012.5 |
| 20260510091646 | 68 | 11 | 3.0 | 5.0 | 0.00 | 0.00 | 0.00 | 99 | 1012.5 |
| 20260510091148 | 68 | 3 | 3.0 | 4.0 | 0.00 | 0.00 | 0.00 | 99 | 1012.5 |
| 20260510090646 | 68 | 27 | 5.0 | 6.0 | 0.00 | 0.00 | 0.00 | 99 | 1012.2 |
| 20260510090146 | 68 | 41 | 2.0 | 5.0 | 0.00 | 0.00 | 0.00 | 99 | 1012.5 |
| 20260510085647 | 68 | 25 | 3.0 | 4.0 | 0.00 | 0.00 | 0.00 | 99 | 1012.5 |
| 20260510085146 | 68 | 357 | 2.0 | 5.0 | 0.00 | 0.00 | 0.00 | 99 | 1012.5 |
| 20260510084646 | 69 | 42 | 2.0 | 5.0 | 0.00 | 0.00 | 0.00 | 99 | 1012.5 |
| 20260510084146 | 68 | 13 | 3.0 | 5.0 | 0.00 | 0.00 | 0.00 | 99 | 1012.5 |
| 20260510083646 | 68 | 19 | 5.0 | 5.0 | 0.00 | 0.00 | 0.00 | 99 | 1012.5 |
| 20260510083146 | 68 | 7 | 4.0 | 5.0 | 0.00 | 0.00 | 0.00 | 99 | 1012.5 |
| 20260510082646 | 68 | 28 | 5.0 | 5.0 | 0.00 | 0.00 | 0.00 | 99 | 1012.5 |
| 20260510082146 | 68 | 4 | 3.0 | 5.0 | 0.00 | 0.00 | 0.00 | 99 | 1012.5 |
| 20260510081649 | 68 | 9 | 4.0 | 5.0 | 0.00 | 0.00 | 0.00 | 99 | 1012.2 |
| 20260510081146 | 68 | 352 | 1.0 | 3.0 | 0.00 | 0.00 | 0.00 | 98 | 1012.2 |
| 20260510080648 | 68 | 34 | 2.0 | 4.0 | 0.00 | 0.00 | 0.00 | 99 | 1012.2 |
| 20260510080147 | 68 | 23 | 2.0 | 5.0 | 0.00 | 0.00 | 0.00 | 99 | 1012.2 |
| 20260510075646 | 68 | 19 | 3.0 | 4.0 | 0.00 | 0.00 | 0.00 | 98 | 1012.2 |
| 20260510075147 | 68 | 326 | 1.0 | 3.0 | 0.00 | 0.00 | 0.00 | 98 | 1011.9 |
| 20260510074646 | 68 | 332 | 1.0 | 5.0 | 0.00 | 0.00 | 0.00 | 99 | 1012.2 |
| 20260510074147 | 68 | 337 | 2.0 | 4.0 | 0.00 | 0.00 | 0.00 | 99 | 1012.2 |
| 20260510073647 | 68 | 12 | 2.0 | 3.0 | 0.00 | 0.00 | 0.00 | 99 | 1011.9 |
| 20260510073147 | 67 | 45 | 1.0 | 3.0 | 0.00 | 0.00 | 0.00 | 99 | 1011.9 |
| 20260510072647 | 68 | 358 | 2.0 | 4.0 | 0.00 | 0.00 | 0.00 | 99 | 1011.9 |
| 20260510072146 | 67 | 338 | 0.0 | 5.0 | 0.00 | 0.00 | 0.00 | 99 | 1011.9 |
| 20260510071654 | 68 | 52 | 0.0 | 4.0 | 0.00 | 0.00 | 0.00 | 99 | 1011.9 |
| 20260510071147 | 68 | 35 | 2.0 | 4.0 | 0.00 | 0.00 | 0.00 | 99 | 1011.9 |
| 20260510070646 | 68 | 355 | 2.0 | 5.0 | 0.00 | 0.00 | 0.00 | 99 | 1011.9 |
| 20260510070146 | 67 | 2 | 2.0 | 5.0 | 0.00 | 0.00 | 0.00 | 99 | 1012.2 |
| 20260510065646 | 67 | 334 | 3.0 | 4.0 | 0.00 | 0.00 | 0.00 | 99 | 1011.9 |
| 20260510065146 | 68 | 1 | 2.0 | 5.0 | 0.00 | 0.00 | 0.00 | 99 | 1011.9 |
| 20260510064646 | 68 | 18 | 3.0 | 4.0 | 0.00 | 0.00 | 0.00 | 99 | 1011.9 |
| 20260510064148 | 67 | 355 | 3.0 | 4.0 | 0.00 | 0.00 | 0.00 | 99 | 1012.2 |
| 20260510063647 | 68 | 335 | 0.0 | 3.0 | 0.00 | 0.00 | 0.00 | 99 | 1011.9 |
| 20260510063146 | 68 | 344 | 3.0 | 4.0 | 0.00 | 0.00 | 0.00 | 99 | 1012.2 |
| 20260510062646 | 68 | 327 | 3.0 | 5.0 | 0.00 | 0.00 | 0.00 | 99 | 1012.2 |
| 20260510062147 | 68 | 10 | 4.0 | 5.0 | 0.00 | 0.00 | 0.00 | 99 | 1011.9 |
| 20260510061646 | 68 | 348 | 3.0 | 5.0 | 0.00 | 0.00 | 0.00 | 99 | 1011.9 |
| 20260510061147 | 68 | 330 | 1.0 | 4.0 | 0.00 | 0.00 | 0.00 | 99 | 1011.9 |
| 20260510060647 | 68 | 330 | 2.0 | 3.0 | 0.00 | 0.00 | 0.00 | 99 | 1011.9 |
| 20260510060146 | 68 | 310 | 3.0 | 4.0 | 0.00 | 0.00 | 0.00 | 99 | 1012.2 |
| 20260510055647 | 68 | 325 | 1.0 | 2.0 | 0.00 | 0.00 | 0.00 | 99 | 1011.9 |
| 20260510055147 | 68 | 298 | 2.0 | 3.0 | 0.00 | 0.00 | 0.00 | 99 | 1012.2 |
| 20260510054646 | 68 | 344 | 2.0 | 4.0 | 0.00 | 0.00 | 0.00 | 99 | 1012.2 |
| 20260510054146 | 68 | 37 | 2.0 | 3.0 | 0.00 | 0.00 | 0.00 | 98 | 1011.9 |
| 20260510053647 | 68 | 341 | 0.0 | 3.0 | 0.02 | 0.00 | 0.00 | 98 | 1011.9 |
| 20260510053147 | 68 | 7 | 1.0 | 3.0 | 0.02 | 0.00 | 0.00 | 98 | 1011.9 |
| 20260510052646 | 69 | 41 | 2.0 | 4.0 | 0.00 | 0.00 | 0.00 | 98 | 1011.9 |
| 20260510052147 | 69 | 16 | 2.0 | 4.0 | 0.00 | 0.00 | 0.00 | 98 | 1011.9 |
| 20260510051647 | 69 | 33 | 1.0 | 4.0 | 0.00 | 0.00 | 0.00 | 98 | 1011.9 |
| 20260510051146 | 69 | 355 | 2.0 | 4.0 | 0.00 | 0.00 | 0.00 | 98 | 1011.9 |
| 20260510050646 | 69 | 142 | 2.0 | 3.0 | 0.00 | 0.00 | 0.00 | 98 | 1011.9 |
| 20260510050146 | 69 | 143 | 2.0 | 5.0 | 0.00 | 0.00 | 0.00 | 98 | 1011.9 |
| 20260510045648 | 69 | 128 | 3.0 | 6.0 | 0.00 | 0.00 | 1.64 | 98 | 1011.9 |
| 20260510045146 | 69 | 146 | 2.0 | 6.0 | 0.00 | 0.00 | 1.64 | 99 | 1012.2 |
| 20260510044647 | 69 | 154 | 7.0 | 9.0 | 0.00 | 0.00 | 1.64 | 99 | 1011.9 |
| 20260510044146 | 69 | 155 | 2.0 | 5.0 | 0.00 | 0.00 | 1.64 | 99 | 1011.9 |
| 20260510043647 | 69 | 0 | 2.0 | 3.0 | 0.00 | 0.00 | 1.64 | 99 | 1012.2 |
| 20260510043146 | 69 | 107 | 0.0 | 3.0 | 0.00 | 0.00 | 1.64 | 99 | 1012.2 |
| 20260510042646 | 69 | 35 | 2.0 | 4.0 | 0.00 | 0.00 | 1.64 | 99 | 1012.5 |
| 20260510042147 | 69 | 147 | 3.0 | 7.0 | 0.00 | 0.00 | 1.64 | 99 | 1012.2 |
| 20260510041646 | 69 | 112 | 4.0 | 6.0 | 0.00 | 0.00 | 1.64 | 99 | 1012.2 |
| 20260510041146 | 69 | 142 | 3.0 | 8.0 | 0.00 | 0.00 | 1.64 | 99 | 1011.9 |
| 20260510040646 | 69 | 170 | 6.0 | 10.0 | 0.00 | 0.00 | 1.64 | 99 | 1012.2 |
| 20260510040147 | 69 | 162 | 5.0 | 12.0 | 0.00 | 0.00 | 1.64 | 99 | 1011.9 |
| 20260510035647 | 69 | 160 | 7.0 | 11.0 | 0.00 | 0.00 | 1.64 | 99 | 1012.2 |
| 20260510035146 | 69 | 174 | 7.0 | 9.0 | 0.00 | 0.00 | 1.64 | 99 | 1012.5 |
| 20260510034646 | 68 | 172 | 6.0 | 10.0 | 0.00 | 0.00 | 1.64 | 99 | 1012.5 |
| 20260510034146 | 68 | 165 | 6.0 | 7.0 | 0.00 | 0.00 | 1.64 | 99 | 1012.9 |
| 20260510033646 | 68 | 139 | 3.0 | 7.0 | 0.00 | 0.00 | 1.64 | 99 | 1012.9 |
| 20260510033146 | 68 | 176 | 3.0 | 5.0 | 0.00 | 0.00 | 1.64 | 99 | 1012.9 |
| 20260510032646 | 68 | 173 | 3.0 | 6.0 | 0.00 | 0.00 | 1.64 | 99 | 1012.9 |
| 20260510032146 | 68 | 157 | 3.0 | 5.0 | 0.00 | 0.00 | 1.64 | 99 | 1012.9 |
| 20260510031647 | 68 | 199 | 4.0 | 4.0 | 0.00 | 0.00 | 1.64 | 99 | 1013.2 |
| 20260510031147 | 68 | 189 | 2.0 | 4.0 | 0.00 | 0.00 | 1.64 | 99 | 1012.9 |
| 20260510030646 | 68 | 208 | 2.0 | 3.0 | 0.00 | 0.00 | 1.64 | 99 | 1013.2 |
| 20260510030148 | 68 | 180 | 2.0 | 3.0 | 0.00 | 0.00 | 1.64 | 99 | 1013.2 |
| 20260510025647 | 68 | 347 | 2.0 | 3.0 | 0.00 | 0.00 | 1.64 | 99 | 1012.9 |
| 20260510025146 | 68 | 293 | 2.0 | 3.0 | 0.00 | 0.00 | 1.64 | 99 | 1012.9 |
| 20260510024646 | 68 | 186 | 2.0 | 3.0 | 0.00 | 0.00 | 1.64 | 99 | 1012.9 |
| 20260510024147 | 68 | 184 | 3.0 | 5.0 | 0.00 | 0.00 | 1.64 | 99 | 1012.9 |
| 20260510023646 | 68 | 228 | 3.0 | 7.0 | 0.00 | 0.00 | 1.64 | 99 | 1012.9 |
| 20260510023146 | 68 | 200 | 3.0 | 5.0 | 0.00 | 0.00 | 1.64 | 99 | 1012.5 |
| 20260510022646 | 68 | 251 | 1.0 | 4.0 | 0.00 | 0.00 | 1.64 | 99 | 1012.5 |
| 20260510022146 | 68 | 143 | 3.0 | 5.0 | 0.00 | 0.00 | 1.64 | 98 | 1012.5 |
| 20260510021646 | 69 | 193 | 3.0 | 5.0 | 0.00 | 0.00 | 1.64 | 98 | 1012.5 |
| 20260510021147 | 69 | 180 | 2.0 | 4.0 | 0.00 | 0.00 | 1.64 | 98 | 1012.5 |
| 20260510020646 | 69 | 180 | 3.0 | 5.0 | 0.00 | 0.00 | 1.64 | 98 | 1012.5 |
| 20260510020147 | 69 | 174 | 3.0 | 5.0 | 0.00 | 0.00 | 1.64 | 98 | 1012.5 |
| 20260510015646 | 69 | 127 | 3.0 | 4.0 | 0.00 | 0.00 | 1.64 | 98 | 1012.5 |
| 20260510015148 | 69 | 162 | 3.0 | 9.0 | 0.00 | 0.00 | 1.64 | 98 | 1012.5 |
| 20260510014646 | 69 | 153 | 4.0 | 10.0 | 0.00 | 0.00 | 1.64 | 98 | 1012.2 |
| 20260510014146 | 69 | 189 | 1.0 | 6.0 | 0.00 | 0.00 | 1.64 | 99 | 1012.2 |
| 20260510013646 | 69 | 180 | 1.0 | 5.0 | 0.00 | 0.00 | 1.64 | 99 | 1012.2 |
| 20260510013146 | 69 | 105 | 4.0 | 7.0 | 0.00 | 0.00 | 1.64 | 99 | 1012.2 |
| 20260510012648 | 69 | 139 | 5.0 | 8.0 | 0.00 | 0.00 | 1.64 | 99 | 1011.9 |
| 20260510012146 | 69 | 155 | 3.0 | 8.0 | 0.00 | 0.00 | 1.64 | 99 | 1011.9 |
| 20260510011647 | 69 | 192 | 3.0 | 10.0 | 0.00 | 0.00 | 1.64 | 99 | 1011.9 |
| 20260510011146 | 69 | 184 | 7.0 | 8.0 | 0.00 | 0.00 | 1.64 | 99 | 1011.9 |
| 20260510010647 | 69 | 6 | 1.0 | 6.0 | 0.00 | 0.00 | 1.64 | 99 | 1011.9 |
| 20260510010146 | 69 | 143 | 5.0 | 9.0 | 0.00 | 0.00 | 1.64 | 99 | 1011.9 |
| 20260510005647 | 69 | 173 | 4.0 | 5.0 | 0.00 | 0.00 | 1.64 | 99 | 1011.9 |
| 20260510005148 | 69 | 155 | 2.0 | 11.0 | 0.00 | 0.00 | 1.64 | 99 | 1011.9 |
| 20260510004647 | 69 | 192 | 4.0 | 9.0 | 0.00 | 0.00 | 1.64 | 99 | 1012.2 |
| 20260510004147 | 69 | 209 | 4.0 | 10.0 | 0.05 | 0.00 | 1.64 | 99 | 1011.9 |
| 20260510003647 | 69 | 119 | 5.0 | 8.0 | 0.05 | 0.00 | 1.64 | 99 | 1011.9 |
| 20260510003147 | 69 | 100 | 2.0 | 6.0 | 0.00 | 0.00 | 1.63 | 99 | 1011.9 |
| 20260510002647 | 69 | 144 | 6.0 | 7.0 | 0.00 | 0.00 | 1.63 | 99 | 1011.9 |
| 20260510002147 | 69 | 146 | 3.0 | 5.0 | 0.00 | 0.00 | 1.63 | 99 | 1011.9 |
| 20260510001646 | 69 | 171 | 2.0 | 5.0 | 0.00 | 0.00 | 1.63 | 99 | 1011.9 |
| 20260510001147 | 69 | 179 | 0.0 | 5.0 | 0.00 | 0.00 | 1.63 | 99 | 1011.9 |
| 20260510000647 | 69 | 161 | 3.0 | 6.0 | 0.00 | 0.00 | 1.63 | 99 | 1011.9 |
| 20260510000146 | 69 | 178 | 2.0 | 5.0 | 0.00 | 0.00 | 1.63 | 99 | 1011.9 |
| 20260509235646 | 69 | 177 | 2.0 | 6.0 | 0.00 | 0.00 | 1.63 | 99 | 1011.9 |
| 20260509235146 | 69 | 151 | 2.0 | 6.0 | 0.00 | 0.00 | 1.63 | 99 | 1011.9 |
| 20260509234647 | 69 | 182 | 3.0 | 4.0 | 0.00 | 0.00 | 1.63 | 99 | 1011.9 |
| 20260509234146 | 69 | 170 | 3.0 | 6.0 | 0.00 | 0.00 | 1.63 | 99 | 1011.9 |
| 20260509233646 | 69 | 142 | 2.0 | 5.0 | 0.02 | 0.00 | 1.63 | 99 | 1011.9 |
| 20260509233146 | 69 | 127 | 2.0 | 4.0 | 0.07 | 0.00 | 1.63 | 99 | 1011.5 |
| 20260509232646 | 69 | 126 | 2.0 | 6.0 | 0.07 | 0.00 | 1.63 | 99 | 1011.9 |
| 20260509232146 | 69 | 30 | 2.0 | 3.0 | 0.09 | 0.00 | 1.62 | 99 | 1011.9 |
| 20260509231647 | 69 | 208 | 0.0 | 3.0 | 0.07 | 0.00 | 1.61 | 99 | 1012.2 |
| 20260509231146 | 69 | 207 | 2.0 | 5.0 | 0.05 | 0.00 | 1.61 | 99 | 1011.9 |
| 20260509230647 | 69 | 156 | 5.0 | 7.0 | 0.07 | 0.00 | 1.60 | 99 | 1011.9 |
| 20260509230147 | 69 | 143 | 6.0 | 7.0 | 0.09 | 0.00 | 1.60 | 99 | 1011.9 |
| 20260509225646 | 69 | 170 | 3.0 | 5.0 | 0.05 | 0.00 | 1.59 | 99 | 1011.9 |
| 20260509225146 | 69 | 166 | 5.0 | 7.0 | 0.02 | 0.00 | 1.58 | 99 | 1012.2 |
| 20260509224647 | 69 | 170 | 4.0 | 5.0 | 0.02 | 0.00 | 1.58 | 99 | 1012.2 |
| 20260509224146 | 69 | 172 | 5.0 | 5.0 | 0.00 | 0.00 | 1.58 | 99 | 1011.9 |
| 20260509223648 | 69 | 170 | 4.0 | 5.0 | 0.00 | 0.00 | 1.58 | 99 | 1011.9 |
| 20260509223147 | 69 | 171 | 4.0 | 5.0 | 0.00 | 0.00 | 1.58 | 99 | 1011.9 |
| 20260509222646 | 69 | 167 | 4.0 | 7.0 | 0.00 | 0.00 | 1.58 | 98 | 1011.5 |
| 20260509222147 | 69 | 176 | 4.0 | 6.0 | 0.02 | 0.00 | 1.58 | 98 | 1011.5 |
| 20260509221647 | 70 | 144 | 3.0 | 5.0 | 0.02 | 0.00 | 1.58 | 98 | 1011.2 |
| 20260509221146 | 70 | 254 | 0.0 | 3.0 | 0.00 | 0.00 | 1.57 | 98 | 1011.2 |